| time (UTC) | temp C | wind direction | speed KPH | gust KPH | rain 1hr cm | rain 24hr cm | rain mn cm | humidity % | barometer mb |
| 20260503050501 | 1 | 294 | 0.0 | 3.2 | 0.00 | 0.03 | 0.00 | 83 | 1017.8 |
| 20260503050006 | 1 | 355 | 0.0 | 0.0 | 0.00 | 0.03 | 0.00 | 82 | 1017.8 |
| 20260503045503 | 1 | 355 | 0.0 | 0.0 | 0.00 | 0.03 | 0.00 | 82 | 1017.8 |
| 20260503045003 | 2 | 352 | 0.0 | 0.0 | 0.00 | 0.03 | 0.00 | 81 | 1017.9 |
| 20260503044512 | 2 | 352 | 0.0 | 0.0 | 0.00 | 0.03 | 0.00 | 81 | 1017.8 |
| 20260503044002 | 2 | 352 | 0.0 | 0.0 | 0.00 | 0.03 | 0.00 | 80 | 1017.8 |
| 20260503043502 | 2 | 355 | 0.0 | 0.0 | 0.00 | 0.03 | 0.00 | 79 | 1017.7 |
| 20260503043007 | 2 | 352 | 0.0 | 0.0 | 0.00 | 0.03 | 0.00 | 79 | 1017.7 |
| 20260503042507 | 2 | 352 | 0.0 | 0.0 | 0.00 | 0.03 | 0.00 | 80 | 1017.8 |
| 20260503042006 | 2 | 352 | 0.0 | 0.0 | 0.00 | 0.03 | 0.00 | 80 | 1017.7 |
| 20260503041510 | 2 | 352 | 0.0 | 0.0 | 0.00 | 0.03 | 0.00 | 80 | 1017.7 |
| 20260503041007 | 2 | 352 | 0.0 | 0.0 | 0.00 | 0.03 | 0.00 | 79 | 1017.7 |
| 20260503040502 | 2 | 352 | 0.0 | 0.0 | 0.00 | 0.03 | 0.00 | 79 | 1017.8 |
| 20260503040004 | 2 | 355 | 0.0 | 0.0 | 0.00 | 0.03 | 0.00 | 79 | 1017.8 |
| 20260503035503 | 2 | 352 | 0.0 | 0.0 | 0.00 | 0.03 | 0.03 | 78 | 1017.9 |
| 20260503035006 | 2 | 352 | 0.0 | 0.0 | 0.00 | 0.03 | 0.03 | 77 | 1017.9 |
| 20260503034508 | 2 | 355 | 0.0 | 0.0 | 0.00 | 0.03 | 0.03 | 78 | 1017.9 |
| 20260503034004 | 2 | 352 | 0.0 | 0.0 | 0.00 | 0.03 | 0.03 | 77 | 1017.9 |
| 20260503033504 | 2 | 355 | 0.0 | 0.0 | 0.00 | 0.03 | 0.03 | 77 | 1017.9 |
| 20260503033016 | 2 | 352 | 0.0 | 0.0 | 0.00 | 0.03 | 0.03 | 77 | 1018.0 |
| 20260503032506 | 2 | 352 | 0.0 | 0.0 | 0.00 | 0.03 | 0.03 | 77 | 1018.0 |
| 20260503032006 | 3 | 352 | 0.0 | 0.0 | 0.00 | 0.03 | 0.03 | 76 | 1018.0 |
| 20260503031512 | 3 | 352 | 0.0 | 0.0 | 0.00 | 0.03 | 0.03 | 75 | 1018.1 |
| 20260503031004 | 3 | 352 | 0.0 | 0.0 | 0.00 | 0.03 | 0.03 | 75 | 1018.1 |
| 20260503030507 | 3 | 352 | 0.0 | 0.0 | 0.00 | 0.03 | 0.03 | 73 | 1018.2 |
| 20260503030012 | 3 | 352 | 0.0 | 0.0 | 0.00 | 0.03 | 0.03 | 73 | 1018.2 |
| 20260503025503 | 3 | 352 | 0.0 | 0.0 | 0.00 | 0.03 | 0.03 | 72 | 1018.3 |
| 20260503025005 | 3 | 355 | 0.0 | 0.0 | 0.00 | 0.03 | 0.03 | 72 | 1018.3 |
| 20260503024511 | 3 | 355 | 0.0 | 1.6 | 0.00 | 0.03 | 0.03 | 71 | 1018.4 |
| 20260503024003 | 3 | 352 | 0.0 | 1.6 | 0.00 | 0.03 | 0.03 | 72 | 1018.4 |
| 20260503023503 | 3 | 355 | 0.0 | 1.6 | 0.00 | 0.03 | 0.03 | 71 | 1018.3 |
| 20260503023008 | 3 | 352 | 0.0 | 0.0 | 0.00 | 0.03 | 0.03 | 70 | 1018.3 |
| 20260503022503 | 4 | 352 | 0.0 | 1.6 | 0.00 | 0.03 | 0.03 | 69 | 1018.3 |
| 20260503022009 | 4 | 352 | 0.0 | 1.6 | 0.00 | 0.03 | 0.03 | 68 | 1018.2 |
| 20260503021515 | 4 | 352 | 0.0 | 0.0 | 0.00 | 0.03 | 0.03 | 67 | 1018.1 |
| 20260503021006 | 5 | 352 | 0.0 | 0.0 | 0.00 | 0.03 | 0.03 | 65 | 1018.1 |
| 20260503020506 | 5 | 352 | 0.0 | 0.0 | 0.00 | 0.03 | 0.03 | 64 | 1018.0 |
| 20260503020016 | 5 | 352 | 0.0 | 0.0 | 0.00 | 0.03 | 0.03 | 63 | 1018.0 |
| 20260503015505 | 5 | 352 | 0.0 | 0.0 | 0.00 | 0.03 | 0.03 | 62 | 1018.0 |
| 20260503015006 | 5 | 352 | 0.0 | 0.0 | 0.00 | 0.03 | 0.03 | 61 | 1017.9 |
| 20260503014514 | 5 | 352 | 0.0 | 0.0 | 0.00 | 0.03 | 0.03 | 60 | 1017.9 |
| 20260503014007 | 6 | 352 | 0.0 | 0.0 | 0.00 | 0.03 | 0.03 | 60 | 1017.9 |
| 20260503013507 | 6 | 355 | 0.0 | 0.0 | 0.00 | 0.03 | 0.03 | 60 | 1017.9 |
| 20260503013015 | 6 | 352 | 0.0 | 1.6 | 0.00 | 0.03 | 0.03 | 59 | 1017.9 |
| 20260503012504 | 6 | 352 | 0.0 | 1.6 | 0.00 | 0.03 | 0.03 | 58 | 1017.8 |
| 20260503012009 | 6 | 355 | 0.0 | 1.6 | 0.00 | 0.03 | 0.03 | 57 | 1017.8 |
| 20260503011512 | 6 | 351 | 0.0 | 1.6 | 0.00 | 0.03 | 0.03 | 57 | 1017.8 |
| 20260503011004 | 6 | 351 | 0.0 | 0.0 | 0.00 | 0.03 | 0.03 | 58 | 1017.8 |
| 20260503010504 | 6 | 351 | 0.0 | 1.6 | 0.00 | 0.03 | 0.03 | 56 | 1017.8 |
| 20260503010016 | 6 | 351 | 0.0 | 1.6 | 0.00 | 0.05 | 0.03 | 56 | 1017.7 |
| 20260503005506 | 6 | 9 | 0.0 | 4.8 | 0.00 | 0.08 | 0.03 | 57 | 1017.6 |
| 20260503005010 | 6 | 9 | 0.0 | 4.8 | 0.00 | 0.08 | 0.03 | 55 | 1017.6 |
| 20260503004516 | 6 | 19 | 0.0 | 4.8 | 0.00 | 0.08 | 0.03 | 55 | 1017.6 |
| 20260503004007 | 7 | 360 | 0.0 | 6.4 | 0.00 | 0.08 | 0.03 | 53 | 1017.6 |
| 20260503003507 | 7 | 360 | 0.0 | 6.4 | 0.00 | 0.08 | 0.03 | 55 | 1017.5 |
| 20260503003036 | 7 | 318 | 0.0 | 4.8 | 0.00 | 0.08 | 0.03 | 55 | 1017.6 |
| 20260503002507 | 7 | 336 | 0.0 | 3.2 | 0.00 | 0.08 | 0.03 | 55 | 1017.6 |
| 20260503002008 | 7 | 345 | 0.0 | 3.2 | 0.00 | 0.08 | 0.03 | 54 | 1017.6 |
| 20260503001541 | 7 | 17 | 0.0 | 3.2 | 0.00 | 0.08 | 0.03 | 53 | 1017.5 |
| 20260503001007 | 7 | 323 | 0.0 | 4.8 | 0.00 | 0.08 | 0.03 | 53 | 1017.4 |
| 20260503000504 | 7 | 348 | 0.0 | 6.4 | 0.00 | 0.08 | 0.03 | 51 | 1017.4 |
| 20260503000016 | 7 | 13 | 0.0 | 6.4 | 0.00 | 0.08 | 0.03 | 52 | 1017.4 |
| 20260502235504 | 7 | 328 | 0.0 | 1.6 | 0.00 | 0.08 | 0.03 | 52 | 1017.4 |
| 20260502235008 | 7 | 21 | 0.0 | 1.6 | 0.00 | 0.08 | 0.03 | 51 | 1017.4 |
| 20260502234523 | 7 | 21 | 0.0 | 3.2 | 0.00 | 0.08 | 0.03 | 52 | 1017.4 |
| 20260502234006 | 7 | 15 | 0.0 | 3.2 | 0.00 | 0.08 | 0.03 | 52 | 1017.3 |
| 20260502233505 | 7 | 9 | 0.0 | 3.2 | 0.00 | 0.08 | 0.03 | 51 | 1017.3 |
| 20260502233024 | 7 | 348 | 0.0 | 3.2 | 0.00 | 0.08 | 0.03 | 51 | 1017.2 |
| 20260502232507 | 7 | 14 | 0.0 | 3.2 | 0.00 | 0.08 | 0.03 | 52 | 1017.3 |
| 20260502232009 | 7 | 352 | 0.0 | 3.2 | 0.00 | 0.08 | 0.03 | 50 | 1017.3 |
| 20260502231520 | 7 | 223 | 0.0 | 6.4 | 0.00 | 0.08 | 0.03 | 50 | 1017.3 |
| 20260502231008 | 7 | 5 | 0.0 | 6.4 | 0.00 | 0.08 | 0.03 | 49 | 1017.3 |
| 20260502230508 | 8 | 281 | 0.0 | 3.2 | 0.00 | 0.08 | 0.03 | 50 | 1017.3 |
| 20260502230031 | 8 | 346 | 0.0 | 6.4 | 0.00 | 0.08 | 0.03 | 50 | 1017.3 |
| 20260502225508 | 8 | 268 | 0.0 | 6.4 | 0.00 | 0.08 | 0.03 | 50 | 1017.3 |
| 20260502225014 | 8 | 24 | 0.0 | 3.2 | 0.00 | 0.08 | 0.03 | 48 | 1017.3 |
| 20260502224517 | 8 | 304 | 1.6 | 3.2 | 0.00 | 0.08 | 0.03 | 49 | 1017.3 |
| 20260502224005 | 8 | 340 | 0.0 | 4.8 | 0.00 | 0.08 | 0.03 | 50 | 1017.3 |
| 20260502223511 | 8 | 340 | 0.0 | 4.8 | 0.00 | 0.08 | 0.03 | 48 | 1017.2 |
| 20260502223020 | 8 | 165 | 1.6 | 6.4 | 0.00 | 0.08 | 0.03 | 46 | 1017.3 |
| 20260502222508 | 8 | 352 | 0.0 | 6.4 | 0.00 | 0.08 | 0.03 | 47 | 1017.3 |
| 20260502222012 | 8 | 352 | 0.0 | 8.0 | 0.00 | 0.08 | 0.03 | 47 | 1017.3 |
| 20260502221521 | 8 | 311 | 1.6 | 8.0 | 0.00 | 0.08 | 0.03 | 45 | 1017.2 |
| 20260502221007 | 8 | 344 | 0.0 | 16.1 | 0.00 | 0.08 | 0.03 | 47 | 1017.3 |
| 20260502220503 | 8 | 61 | 1.6 | 16.1 | 0.00 | 0.08 | 0.03 | 46 | 1017.3 |
| 20260502220009 | 8 | 53 | 0.0 | 6.4 | 0.00 | 0.08 | 0.03 | 47 | 1017.3 |
| 20260502215506 | 8 | 65 | 1.6 | 11.3 | 0.00 | 0.08 | 0.03 | 45 | 1017.2 |
| 20260502215003 | 8 | 26 | 1.6 | 11.3 | 0.00 | 0.08 | 0.03 | 47 | 1017.2 |
| 20260502214516 | 9 | 360 | 0.0 | 6.4 | 0.00 | 0.08 | 0.03 | 45 | 1017.2 |
| 20260502214006 | 9 | 22 | 0.0 | 8.0 | 0.00 | 0.08 | 0.03 | 45 | 1017.2 |
| 20260502213508 | 9 | 337 | 1.6 | 8.0 | 0.00 | 0.08 | 0.03 | 45 | 1017.1 |
| 20260502213021 | 9 | 308 | 0.0 | 6.4 | 0.00 | 0.08 | 0.03 | 47 | 1017.1 |
| 20260502212507 | 9 | 58 | 0.0 | 4.8 | 0.00 | 0.08 | 0.03 | 46 | 1017.0 |
| 20260502212013 | 9 | 26 | 0.0 | 8.0 | 0.00 | 0.08 | 0.03 | 45 | 1016.9 |
| 20260502211520 | 10 | 349 | 0.0 | 8.0 | 0.00 | 0.08 | 0.03 | 44 | 1017.0 |
| 20260502211003 | 10 | 338 | 0.0 | 8.0 | 0.00 | 0.08 | 0.03 | 46 | 1016.8 |
| 20260502210503 | 10 | 24 | 0.0 | 4.8 | 0.00 | 0.08 | 0.03 | 44 | 1016.8 |
| 20260502210017 | 10 | 313 | 0.0 | 4.8 | 0.00 | 0.08 | 0.03 | 44 | 1016.9 |
| 20260502205506 | 10 | 335 | 0.0 | 8.0 | 0.00 | 0.08 | 0.03 | 43 | 1016.9 |
| 20260502205006 | 10 | 11 | 1.6 | 8.0 | 0.00 | 0.08 | 0.03 | 44 | 1016.9 |
| 20260502204513 | 10 | 22 | 0.0 | 4.8 | 0.00 | 0.08 | 0.03 | 45 | 1016.8 |
| 20260502204003 | 10 | 12 | 0.0 | 14.5 | 0.00 | 0.08 | 0.03 | 48 | 1016.9 |
| 20260502203507 | 10 | 281 | 3.2 | 14.5 | 0.00 | 0.08 | 0.03 | 45 | 1016.8 |
| 20260502203020 | 10 | 24 | 1.6 | 9.7 | 0.00 | 0.08 | 0.03 | 44 | 1016.8 |
| 20260502202507 | 10 | 9 | 1.6 | 8.0 | 0.00 | 0.08 | 0.03 | 44 | 1016.9 |
| 20260502202007 | 10 | 213 | 1.6 | 9.7 | 0.00 | 0.08 | 0.03 | 43 | 1017.0 |
| 20260502201525 | 10 | 360 | 0.0 | 9.7 | 0.00 | 0.08 | 0.03 | 43 | 1017.0 |
| 20260502201008 | 10 | 186 | 0.0 | 9.7 | 0.00 | 0.08 | 0.03 | 44 | 1017.0 |
| 20260502200510 | 10 | 318 | 1.6 | 9.7 | 0.00 | 0.08 | 0.03 | 45 | 1017.0 |
| 20260502200022 | 10 | 26 | 1.6 | 14.5 | 0.00 | 0.08 | 0.03 | 44 | 1017.0 |
| 20260502195502 | 10 | 339 | 0.0 | 14.5 | 0.00 | 0.08 | 0.03 | 45 | 1017.1 |
| 20260502195003 | 10 | 316 | 1.6 | 9.7 | 0.00 | 0.08 | 0.03 | 44 | 1017.2 |
| 20260502194509 | 10 | 352 | 0.0 | 9.7 | 0.00 | 0.08 | 0.03 | 44 | 1017.2 |
| 20260502194002 | 10 | 346 | 1.6 | 8.0 | 0.00 | 0.08 | 0.03 | 42 | 1017.2 |
| 20260502193507 | 11 | 33 | 1.6 | 8.0 | 0.00 | 0.08 | 0.03 | 43 | 1017.1 |
| 20260502193013 | 11 | 47 | 0.0 | 6.4 | 0.00 | 0.08 | 0.03 | 46 | 1017.2 |
| 20260502192506 | 10 | 87 | 1.6 | 9.7 | 0.00 | 0.08 | 0.03 | 45 | 1017.3 |
| 20260502192012 | 10 | 360 | 0.0 | 9.7 | 0.00 | 0.08 | 0.03 | 45 | 1017.3 |
| 20260502191521 | 10 | 352 | 1.6 | 6.4 | 0.00 | 0.08 | 0.03 | 47 | 1017.4 |
| 20260502191005 | 10 | 319 | 0.0 | 4.8 | 0.00 | 0.08 | 0.03 | 47 | 1017.5 |
| 20260502190502 | 10 | 22 | 0.0 | 9.7 | 0.00 | 0.08 | 0.03 | 47 | 1017.6 |
| 20260502190004 | 10 | 296 | 1.6 | 17.7 | 0.00 | 0.08 | 0.03 | 48 | 1017.5 |
| 20260502185510 | 10 | 340 | 1.6 | 17.7 | 0.00 | 0.08 | 0.03 | 49 | 1017.5 |
| 20260502185003 | 10 | 345 | 1.6 | 20.9 | 0.00 | 0.08 | 0.03 | 48 | 1017.5 |
| 20260502184507 | 10 | 28 | 1.6 | 20.9 | 0.00 | 0.08 | 0.03 | 48 | 1017.5 |
| 20260502184005 | 10 | 352 | 3.2 | 8.0 | 0.00 | 0.08 | 0.03 | 46 | 1017.5 |
| 20260502183504 | 10 | 306 | 1.6 | 8.0 | 0.00 | 0.08 | 0.03 | 45 | 1017.6 |
| 20260502183012 | 10 | 115 | 0.0 | 9.7 | 0.00 | 0.08 | 0.03 | 45 | 1017.4 |
| 20260502182508 | 10 | 61 | 1.6 | 9.7 | 0.00 | 0.08 | 0.03 | 45 | 1017.6 |
| 20260502182002 | 10 | 234 | 1.6 | 6.4 | 0.00 | 0.08 | 0.03 | 46 | 1017.4 |
| 20260502181502 | 10 | 308 | 0.0 | 11.3 | 0.00 | 0.08 | 0.03 | 47 | 1017.5 |
| 20260502181005 | 10 | 352 | 3.2 | 11.3 | 0.00 | 0.08 | 0.03 | 46 | 1017.6 |
| 20260502180503 | 10 | 82 | 0.0 | 9.7 | 0.00 | 0.08 | 0.03 | 49 | 1017.6 |
| 20260502170505 | 8 | 153 | 0.0 | 9.7 | 0.00 | 0.08 | 0.03 | 51 | 1017.8 |
| 20260502164003 | 8 | 229 | 1.6 | 9.7 | 0.00 | 0.08 | 0.03 | 50 | 1017.9 |
| 20260502163503 | 9 | 273 | 1.6 | 9.7 | 0.00 | 0.08 | 0.03 | 49 | 1018.0 |
| 20260502163004 | 9 | 347 | 1.6 | 8.0 | 0.00 | 0.08 | 0.03 | 47 | 1017.9 |
| 20260502162507 | 10 | 5 | 1.6 | 8.0 | 0.00 | 0.08 | 0.03 | 49 | 1018.1 |
| 20260502162006 | 9 | 5 | 1.6 | 6.4 | 0.00 | 0.08 | 0.03 | 50 | 1018.1 |
| 20260502161510 | 10 | 227 | 0.0 | 6.4 | 0.00 | 0.08 | 0.03 | 50 | 1018.1 |
| 20260502161006 | 10 | 89 | 0.0 | 11.3 | 0.00 | 0.08 | 0.03 | 50 | 1018.1 |
| 20260502160509 | 10 | 335 | 3.2 | 11.3 | 0.00 | 0.08 | 0.03 | 51 | 1018.0 |
| 20260502152004 | 8 | 45 | 0.0 | 8.0 | 0.00 | 0.13 | 0.03 | 56 | 1018.0 |
| 20260502151509 | 9 | 224 | 1.6 | 16.1 | 0.00 | 0.13 | 0.03 | 54 | 1018.0 |
| 20260502151003 | 9 | 15 | 1.6 | 16.1 | 0.00 | 0.15 | 0.03 | 57 | 1018.0 |
| 20260502150503 | 8 | 5 | 0.0 | 6.4 | 0.00 | 0.18 | 0.03 | 60 | 1018.1 |
| 20260502130503 | 3 | 275 | 1.6 | 8.0 | 0.00 | 0.25 | 0.03 | 79 | 1017.7 |
| 20260502123508 | 2 | 9 | 0.0 | 4.8 | 0.00 | 0.28 | 0.03 | 84 | 1017.6 |
| 20260502123018 | 2 | 184 | 0.0 | 4.8 | 0.00 | 0.28 | 0.03 | 86 | 1017.6 |
| 20260502122505 | 2 | 9 | 0.0 | 3.2 | 0.00 | 0.28 | 0.03 | 88 | 1017.5 |
| 20260502122010 | 1 | 337 | 0.0 | 3.2 | 0.00 | 0.28 | 0.03 | 89 | 1017.4 |
| 20260502121526 | 1 | 271 | 0.0 | 3.2 | 0.00 | 0.28 | 0.03 | 90 | 1017.5 |
| 20260502121010 | 1 | 49 | 0.0 | 3.2 | 0.00 | 0.28 | 0.03 | 92 | 1017.5 |
| 20260502120507 | 1 | 11 | 0.0 | 3.2 | 0.00 | 0.28 | 0.03 | 93 | 1017.4 |
| 20260502115508 | 1 | 79 | 0.0 | 1.6 | 0.00 | 0.28 | 0.03 | 94 | 1017.3 |
| 20260502115013 | 0 | 303 | 0.0 | 3.2 | 0.00 | 0.28 | 0.03 | 94 | 1017.4 |
| 20260502114513 | 0 | 231 | 0.0 | 3.2 | 0.00 | 0.28 | 0.03 | 95 | 1017.4 |
| 20260502114006 | 0 | 41 | 0.0 | 0.0 | 0.00 | 0.28 | 0.03 | 95 | 1017.3 |
| 20260502113505 | 0 | 41 | 0.0 | 0.0 | 0.00 | 0.28 | 0.03 | 95 | 1017.3 |
| 20260502113016 | 0 | 41 | 0.0 | 0.0 | 0.00 | 0.28 | 0.03 | 94 | 1017.3 |
| 20260502112505 | 0 | 38 | 0.0 | 1.6 | 0.00 | 0.28 | 0.03 | 94 | 1017.3 |
| 20260502112009 | 0 | 38 | 0.0 | 1.6 | 0.00 | 0.28 | 0.03 | 94 | 1017.3 |
| 20260502111519 | 0 | 38 | 0.0 | 1.6 | 0.00 | 0.28 | 0.03 | 94 | 1017.1 |
| 20260502111005 | 0 | 38 | 0.0 | 0.0 | 0.00 | 0.28 | 0.03 | 94 | 1017.1 |
| 20260502110510 | 0 | 38 | 0.0 | 0.0 | 0.00 | 0.28 | 0.03 | 94 | 1017.1 |
| 20260502110025 | 0 | 38 | 0.0 | 0.0 | 0.00 | 0.28 | 0.03 | 94 | 1017.2 |
| 20260502105512 | 0 | 38 | 0.0 | 0.0 | 0.00 | 0.28 | 0.03 | 94 | 1017.2 |
| 20260502105012 | 0 | 38 | 0.0 | 0.0 | 0.00 | 0.28 | 0.03 | 94 | 1017.0 |
| 20260502104534 | 0 | 38 | 0.0 | 0.0 | 0.00 | 0.28 | 0.03 | 93 | 1017.0 |
| 20260502104009 | 0 | 38 | 0.0 | 0.0 | 0.00 | 0.28 | 0.03 | 93 | 1017.0 |
| 20260502103510 | 0 | 38 | 0.0 | 0.0 | 0.00 | 0.28 | 0.03 | 93 | 1017.0 |
| 20260502103012 | 0 | 38 | 0.0 | 0.0 | 0.00 | 0.28 | 0.03 | 93 | 1017.0 |
| 20260502102507 | 0 | 38 | 0.0 | 0.0 | 0.00 | 0.28 | 0.03 | 94 | 1017.0 |
| 20260502102008 | 0 | 38 | 0.0 | 0.0 | 0.00 | 0.28 | 0.03 | 94 | 1017.0 |
| 20260502101516 | 0 | 38 | 0.0 | 0.0 | 0.00 | 0.28 | 0.03 | 94 | 1017.1 |
| 20260502101004 | 0 | 38 | 0.0 | 0.0 | 0.00 | 0.28 | 0.03 | 94 | 1017.0 |
| 20260502100502 | 0 | 38 | 0.0 | 0.0 | 0.00 | 0.28 | 0.03 | 94 | 1016.9 |
| 20260502091511 | 0 | 38 | 0.0 | 0.0 | 0.00 | 0.28 | 0.03 | 94 | 1017.1 |
| 20260502091006 | 0 | 38 | 0.0 | 0.0 | 0.00 | 0.28 | 0.03 | 94 | 1017.1 |
| 20260502090506 | 0 | 38 | 0.0 | 0.0 | 0.00 | 0.28 | 0.03 | 94 | 1017.0 |
| 20260502071507 | 1 | 38 | 0.0 | 0.0 | 0.03 | 0.28 | 0.03 | 93 | 1016.7 |
| 20260502071004 | 1 | 38 | 0.0 | 0.0 | 0.03 | 0.28 | 0.03 | 93 | 1016.8 |
| 20260502070504 | 1 | 38 | 0.0 | 0.0 | 0.03 | 0.28 | 0.03 | 93 | 1016.9 |
| 20260502070012 | 1 | 38 | 0.0 | 0.0 | 0.03 | 0.28 | 0.03 | 93 | 1017.0 |
| 20260502065505 | 1 | 38 | 0.0 | 0.0 | 0.03 | 0.28 | 0.03 | 93 | 1017.0 |
| 20260502065009 | 1 | 38 | 0.0 | 0.0 | 0.03 | 0.28 | 0.03 | 93 | 1017.0 |
| 20260502064517 | 1 | 38 | 0.0 | 0.0 | 0.03 | 0.28 | 0.03 | 93 | 1017.1 |
| 20260502064007 | 1 | 38 | 0.0 | 0.0 | 0.03 | 0.28 | 0.03 | 93 | 1017.1 |
| 20260502063507 | 1 | 38 | 0.0 | 0.0 | 0.03 | 0.28 | 0.03 | 93 | 1017.1 |
| 20260502063025 | 1 | 38 | 0.0 | 0.0 | 0.00 | 0.25 | 0.00 | 93 | 1017.0 |
| 20260502062511 | 1 | 38 | 0.0 | 0.0 | 0.00 | 0.25 | 0.00 | 93 | 1017.0 |
| 20260502062013 | 2 | 38 | 0.0 | 0.0 | 0.00 | 0.25 | 0.00 | 93 | 1017.1 |
| 20260502061505 | 2 | 38 | 0.0 | 0.0 | 0.00 | 0.25 | 0.00 | 93 | 1017.0 |
| 20260502061004 | 2 | 38 | 0.0 | 0.0 | 0.00 | 0.25 | 0.00 | 93 | 1017.1 |
| 20260502060503 | 2 | 38 | 0.0 | 0.0 | 0.00 | 0.25 | 0.00 | 93 | 1017.1 |
| 20260502060006 | 2 | 38 | 0.0 | 0.0 | 0.00 | 0.25 | 0.00 | 93 | 1017.1 |
| 20260502055504 | 2 | 38 | 0.0 | 0.0 | 0.00 | 0.25 | 0.00 | 93 | 1017.1 |
| 20260502055006 | 2 | 38 | 0.0 | 0.0 | 0.00 | 0.25 | 0.00 | 93 | 1017.1 |
| 20260502054512 | 2 | 38 | 0.0 | 0.0 | 0.00 | 0.25 | 0.00 | 93 | 1017.1 |
| 20260502054006 | 2 | 38 | 0.0 | 0.0 | 0.00 | 0.25 | 0.00 | 93 | 1017.2 |
| 20260502053507 | 2 | 38 | 0.0 | 0.0 | 0.00 | 0.25 | 0.00 | 93 | 1017.3 |
| 20260502053019 | 2 | 38 | 0.0 | 1.6 | 0.00 | 0.25 | 0.00 | 93 | 1017.4 |
| 20260502052513 | 2 | 38 | 0.0 | 1.6 | 0.00 | 0.25 | 0.00 | 93 | 1017.4 |
| 20260502052007 | 2 | 38 | 0.0 | 0.0 | 0.00 | 0.25 | 0.00 | 93 | 1017.3 |
| 20260502051527 | 2 | 38 | 0.0 | 0.0 | 0.00 | 0.25 | 0.00 | 93 | 1017.3 |
| 20260502051007 | 2 | 38 | 0.0 | 0.0 | 0.00 | 0.25 | 0.00 | 93 | 1017.4 |